Location: Kernascl�den
(48.0062°N, 3.3198°W)
Time: 23:01:33
(UTC+00:00)

Meteor 2-10 Rocket - Pass Details

Date: 21 January 2021
Orbit: 733 x 885 km, 81.2° (Epoch: 04 March)

Event Time Altitude Azimuth Distance (km) Brightness Sun altitude
Rises 18:00:30 0° 349° (N) 3,417 6.8 -10.6°
Reaches altitude 10° 18:03:00 10° 352° (N) 2,456 6.0 -11.0°
Maximum altitude 18:08:32 69° 76° (ENE) 864 3.5 -11.9°
Drops below altitude 10° 18:13:48 10° 160° (SSE) 2,335 6.0 -12.8°
Sets 18:16:07 0° 163° (SSE) 3,237 6.7 -13.1°
